Regional Weather Roundup
Issued by NWS

Home | Current Version | Previous Version | Graphics & Text | Print | Product List | Glossary On
Versions: 1 2 3 4 5 6 7 8 9 10 11 12 13 14 15 16 17 18 19 20 21 22 23 24 25 26 27 28 29 30 31 32 33 34 35 36 37 38 39 40 41 42 43 44 45 46 47 48 49 50
000
ASUS45 KCYS 141410
RWRWY

WYOMING REGIONAL WEATHER ROUNDUP
NATIONAL WEATHER SERVICE CHEYENNE WY
800 AM MDT SUN SEP 14 2014

NOTE:  "FAIR" INDICATES FEW OR NO CLOUDS BELOW 12,000 FEET
WITH NO SIGNIFICANT WEATHER AND/OR OBSTRUCTIONS TO VISIBILITY.

WYZ001-141500-
YELLOWSTONE NATIONAL PARK

CITY           SKY/WX    TMP DP  RH WIND       PRES   REMARKS
LK YELLOWSTONE   N/A     30  27  88 CALM      30.22R
W YELLOWSTONE  NOT AVBL

$$
WYZ002>013-054>058-071-098>099-141500-
NORTHERN WYOMING

CITY           SKY/WX    TMP DP  RH WIND       PRES   REMARKS
JACKSON        CLEAR     32  30  93 NE8       30.17S WCI  25
CODY           MOSUNNY   37  36  93 CALM      30.09R
GREYBULL       SUNNY     39  38  96 CALM      30.07S
WORLAND        SUNNY     41  38  89 CALM      30.07S
SHERIDAN       SUNNY     37  34  89 CALM      30.09R
BUFFALO        SUNNY     40  34  79 SE5       30.08S
GILLETTE       SUNNY     40  36  86 S15       30.10R WCI  32
HULETT         PTSUNNY   43  36  75 MISG      30.14
NEWCASTLE      FAIR      37  36  93 CALM      30.15

$$
WYZ014>020-022>026-101>103-141500-
CENTRAL WYOMING

CITY           SKY/WX    TMP DP  RH WIND       PRES   REMARKS
BIG PINEY      PTSUNNY   36  26  67 S5        30.20R WCI  32
PINEDALE       PTSUNNY   32  28  86 W3        30.21R
DUBOIS         FAIR      36  27  69 NW5       30.14R WCI  32
LANDER         PTSUNNY   40  33  76 NW3       30.10R
RIVERTON       MOSUNNY   44  34  67 NW6       30.11R
CASPER         SUNNY     39  33  79 S3        30.10S
DOUGLAS        SUNNY     39  35  86 CALM      30.12S

$$
WYZ021-027>030-104>119-141500-
SOUTHERN WYOMING

CITY           SKY/WX    TMP DP  RH WIND       PRES   REMARKS
EVANSTON       PTCLDY    53  30  41 CALM      30.20R
KEMMERER       PTSUNNY   45  32  61 N5        30.20S
FORT BRIDGER   FAIR      55  29  38 W8        30.22R
ROCK SPRINGS   MOSUNNY   52  27  38 S6        30.17S
DIXON          FAIR      42  35  79 CALM      30.23S
RAWLINS        MOSUNNY   50  29  44 CALM      30.18R
SARATOGA       FAIR      50  34  53 SE3       30.21R
LARAMIE        SUNNY     52  34  50 SW9       30.20R
CHEYENNE       SUNNY     52  35  52 W12       30.14S
TORRINGTON     FOG       44  44 100 E6        30.10S VSB 1/4
PINE BLUFFS    FAIR      45  43  93 CALM      30.12S

$$



USA.gov is the U.S. government's official web portal to all federal, state and local government web resources and services.